Flag for U.S.A. Weather past 2 weeks in Sioux Falls, South Dakota, U.S.A.

Now
60 °F

Light rain. Mostly cloudy.


Feels Like: 60 °F
Forecast: 47 / 67 °F
Wind: 16 mph from North

Location: Foss Field

Current Time: May 29, 2015 at 1:48:54 PM

Latest Report: May 29, 2015 at 12:56 PM


Visibility: 10 mi

Pressure: 29.92 "Hg

Humidity: 90%

Dew point: 57 °F

Location of Sioux FallsLocation

Historic Weather in Sioux Falls — Graph

°F

Sioux Falls temperature yesterday

Maximum temperature yesterday: 81 °F (at 1:56 PM)
Minimum temperature yesterday: 64 °F (at 4:56 AM)
Average temperature yesterday: 71 °F

Past Weeks' High & Low Weather Summary

 TemperatureHumidityPressure
High82 °F (May 27, 1:56 PM)97% (May 16, 10:56 AM)30.48 "Hg (May 16, 10:56 AM)
Low37 °F (May 18, 4:56 AM)24% (May 21, 2:56 PM)29.51 "Hg (May 17, 5:56 AM)
Average59 °F71%29.99 "Hg
* Reported May 14 12:56 PM — May 29 12:04 PM, Sioux Falls, Weather by CustomWeather, © 2015

Note: Actual official high and low records may vary slightly from our data, if they occured in-between our weather recording intervals... More about our weather records

Advertising

Sioux Falls weather history for previous 24 hours

 ConditionsComfort  
Time TempWeatherWind HumidityBarometerVisibility
12:04 PM
Fri, May 29
70 °FMore clouds than sun.5 mph79%29.90 "Hg10 mi
11:56 AM69 °FMostly cloudy.3 mph84%29.88 "Hg10 mi
11:04 AM68 °FMostly cloudy.3 mph84%29.89 "Hg10 mi
10:56 AM67 °FMore clouds than sun.5 mph87%29.88 "Hg10 mi
9:56 AM65 °FLight rain. Overcast.No wind91%29.89 "Hg10 mi
8:56 AM64 °FLight rain. Low clouds.3 mph90%29.88 "Hg9 mi
7:56 AM64 °FLight rain. Fog.5 mph97%29.86 "Hg3 mi
7:00 AM64 °FFog.3 mph97%29.85 "Hg4 mi
5:56 AM64 °FFog.5 mph97%29.81 "Hg6 mi
4:56 AM65 °FMostly cloudy.13 mph94%29.81 "Hg7 mi
3:56 AM64 °FClear.3 mph97%29.81 "Hg7 mi
2:56 AM67 °FOvercast.12 mph90%29.84 "Hg10 mi
1:56 AM66 °FPartly cloudy.10 mph90%29.83 "Hg10 mi
12:56 AM67 °FPassing clouds.13 mph87%29.84 "Hg10 mi
11:56 PM
Thu, May 28
66 °FPassing clouds.10 mph87%29.85 "Hg10 mi
10:56 PM67 °FMostly cloudy.9 mph81%29.87 "Hg10 mi
9:56 PM67 °FMore clouds than sun.13 mph76%29.87 "Hg10 mi
8:56 PM69 °FMore clouds than sun.15 mph68%29.86 "Hg10 mi
7:56 PM72 °FPartly sunny.17 mph57%29.85 "Hg10 mi
6:56 PM74 °FPartly sunny.20 mph50%29.83 "Hg10 mi
5:56 PM77 °FPartly sunny.25 mph48%29.84 "Hg10 mi
4:56 PM79 °FPartly sunny.25 mph48%29.87 "Hg10 mi
3:56 PM79 °FBroken clouds.15 mph48%29.89 "Hg10 mi
2:56 PM81 °FScattered clouds.16 mph45%29.90 "Hg10 mi
1:56 PM81 °FScattered clouds.18 mph45%29.92 "Hg10 mi
Weather by CustomWeather, © 2015

See weather overviewHow to use our weather pages